Weather History for New Orleans Lakefront, LA

Change the Weather History Date:

Sunday, March 10, 2013

  Actual Average Record
Temperature  
Mean Temperature 70 °F 62 °F  
Max Temperature 76 °F 71 °F 82 °F (2000)
Min Temperature 63 °F 53 °F 34 °F (1996)
Degree Days  
Heating Degree Days 0 5  
Month to date heating degree days 98 58  
Since 1 July heating degree days 987 1167  
Cooling Degree Days 5 2  
Month to date cooling degree days 5 15  
Year to date cooling degree days 37 52  
Growing Degree Days 22 (Base 50)    
Moisture  
Dew Point 61 °F    
Average Humidity 77    
Maximum Humidity 90    
Minimum Humidity 64    
Precipitation  
Precipitation 0.02 in 0.14 in 1.05 in (1992)
Month to date precipitation 0.02 1.51  
Year to date precipitation 13.82 11.96  
Snow  
Snow 0.00 in - - ()
Month to date snowfall 0.0  
Since 1 July snowfall 0.0  
Snow Depth 0.00 in    
Sea Level Pressure  
Sea Level Pressure 29.92 in    
Wind  
Wind Speed 13 mph (SE)    
Max Wind Speed 25 mph    
Max Gust Speed 32 mph    
Visibility 9 miles    
Events      
T = Trace of Precipitation, MM = Missing Value Source: NWS Daily Summary

Daily Weather History Graph

Daily Weather History Graph

Search for Another Location

Airport:

Trip Planner

Search our weather history database for the weather conditions in past years. The results will help you decide how hot, cold, wet, or windy it might be!

Date:

Astronomy

Mar. 10, 2013 Rise Set
Actual Time 7:15 AM CDT 7:05 PM CDT
Civil Twilight 6:51 AM CDT 7:29 PM CDT
Nautical Twilight 6:23 AM CDT 7:57 PM CDT
Astronomical Twilight 5:56 AM CDT 8:24 PM CDT
Moon 6:12 AM CDT (3/10) 6:13 PM CDT (3/10)
Length of Visible Light 12h 37m
Length of Day
11h 49m
Waning Crescent, 2% of the Moon is Illuminated
Mar 10
Waning Crescent
Mar 11
New
Mar 19
First Quarter
Mar 27
Full
Apr 2
Last Quarter

Hourly Weather History & Observations

Time (CDT) Temp. Heat Index Dew Point Humidity Pressure Visibility Wind Dir Wind Speed Gust Speed Precip Events Conditions
12:53 AM 66.9 °F - 59.0 °F 76% 29.95 in 9.0 mi SE 8.1 mph - N/A   Clear
1:53 AM 66.0 °F - 59.0 °F 78% 29.94 in 8.0 mi ESE 6.9 mph - N/A   Clear
3:53 AM 64.4 °F - 57.2 °F 77% 29.93 in 8.0 mi ESE 9.2 mph - N/A   Clear
4:53 AM 64.9 °F - 57.9 °F 78% 29.91 in 8.0 mi ESE 8.1 mph - N/A   Clear
5:53 AM 63.0 °F - 57.9 °F 84% 29.91 in 6.0 mi East 5.8 mph - N/A   Haze
6:53 AM 64.4 °F - 57.2 °F 77% 29.94 in 7.0 mi ESE 6.9 mph - N/A   Clear
7:53 AM 66.0 °F - 59.0 °F 78% 29.92 in 8.0 mi ESE 10.4 mph - N/A   Clear
8:53 AM 71.1 °F - 60.1 °F 68% 29.92 in 9.0 mi SE 15.0 mph - N/A   Clear
9:53 AM 75.9 °F - 61.0 °F 60% 29.95 in 10.0 mi SE 17.3 mph 26.5 mph N/A   Mostly Cloudy
10:53 AM 77.0 °F - 61.0 °F 58% 29.99 in 10.0 mi SSE 18.4 mph 26.5 mph N/A   Overcast
11:53 AM 80.1 °F 80.9 °F 60.1 °F 50% 29.97 in 10.0 mi SSE 21.9 mph 29.9 mph N/A   Overcast
12:53 PM 78.1 °F - 60.1 °F 54% 29.96 in 10.0 mi SSE 21.9 mph 29.9 mph N/A   Overcast
1:53 PM 79.0 °F - 61.0 °F 54% 29.94 in 10.0 mi SSE 23.0 mph 33.4 mph N/A   Overcast
2:53 PM 78.1 °F - 62.1 °F 58% 29.92 in 9.0 mi South 19.6 mph 28.8 mph N/A   Overcast
3:53 PM 80.1 °F 81.5 °F 63.0 °F 56% 29.90 in 10.0 mi South 23.0 mph 29.9 mph N/A   Mostly Cloudy
4:53 PM 79.0 °F - 63.0 °F 58% 29.88 in 10.0 mi SSE 18.4 mph 28.8 mph N/A   Overcast
5:53 PM 78.1 °F - 63.0 °F 60% 29.88 in 10.0 mi SSE 20.7 mph 28.8 mph N/A   Overcast
6:14 PM 77.0 °F - 62.6 °F 61% 29.90 in 10.0 mi SSE 20.7 mph 26.5 mph N/A   Overcast
6:53 PM 75.9 °F - 64.0 °F 67% 29.88 in 9.0 mi SSE 15.0 mph 23.0 mph N/A   Overcast
7:24 PM 75.2 °F - 64.4 °F 69% 29.90 in 9.0 mi SSE 18.4 mph 24.2 mph N/A   Overcast
7:53 PM 75.0 °F - 64.9 °F 71% 29.88 in 9.0 mi SSE 15.0 mph 26.5 mph N/A   Overcast
8:53 PM 73.9 °F - 64.9 °F 73% 29.89 in 9.0 mi SSE 15.0 mph - N/A   Mostly Cloudy
9:53 PM 72.0 °F - 64.0 °F 76% 29.89 in 8.0 mi SE 9.2 mph - N/A   Scattered Clouds
10:53 PM 71.1 °F - 64.0 °F 78% 29.90 in 8.0 mi South 8.1 mph - N/A   Mostly Cloudy
11:53 PM 71.1 °F - 64.0 °F 78% 29.90 in 8.0 mi South 8.1 mph - N/A   Clear
12:53 AM 71.1 °F - 64.0 °F 78% 29.89 in 7.0 mi SSE 10.4 mph - N/A   Clear